When you browse on this site, cookies collect data to enhance your experience and personalize the content and advertising you see.
Visit our Privacy Policy to learn more. By continuing to use the site, you agree to this use of cookies and data.
  • In United Kingdom
  • List of Countries
  • For 7 days
  • Water Temperature
  • Weather Map
  • Weather Widgets
  • user-avatar
    Login

    Hourly Weather Milazzo

    Today, 17 September, Tuesday

    Time Temperature Precipitation Wind Pressure Humidity
    00:00 +24°C° 0 mm 1 mps 763 mmHg 77%
    01:00 +24°C° 0 mm 1 mps 763 mmHg 78%
    02:00 +23°C° 0 mm 1 mps 762 mmHg 79%
    03:00 +23°C° 0 mm 1 mps 762 mmHg 81%
    04:00 +23°C° 0 mm 1 mps 762 mmHg 83%
    05:00 +24°C° 0 mm 1 mps 762 mmHg 80%
    06:00 +24°C° 0 mm 1 mps 762 mmHg 77%
    07:00 +25°C° 0 mm 1 mps 762 mmHg 73%
    08:00 +27°C° 0 mm 1 mps 762 mmHg 66%
    09:00 +28°C° 0 mm 1 mps 762 mmHg 60%
    10:00 +30°C° 0 mm 1 mps 762 mmHg 53%
    11:00 +31°C° 0 mm 1 mps 762 mmHg 53%
    12:00 +31°C° 0 mm 2 mps 762 mmHg 52%
    13:00 +32°C° 0 mm 2 mps 761 mmHg 51%
    14:00 +31°C° 0.1 mm 2 mps 761 mmHg 56%
    15:00 +30°C° 0.1 mm 2 mps 761 mmHg 60%
    16:00 +29°C° 0.1 mm 1 mps 761 mmHg 64%
    17:00 +27°C° 0 mm 1 mps 761 mmHg 72%
    18:00 +26°C° 0 mm 1 mps 761 mmHg 79%
    19:00 +24°C° 0 mm 1 mps 761 mmHg 87%
    20:00 +24°C° 0 mm 1 mps 761 mmHg 87%
    21:00 +24°C° 0 mm 1 mps 761 mmHg 86%
    22:00 +23°C° 0 mm 1 mps 761 mmHg 86%
    23:00 +23°C° 0 mm 1 mps 761 mmHg 83%

    Tomorrow, 18 September, Wednesday

    Time Temperature Precipitation Wind Pressure Humidity
    00:00 +23°C° 0 mm 1 mps 761 mmHg 80%
    01:00 +23°C° 0 mm 1 mps 761 mmHg 78%
    02:00 +23°C° 0 mm 1 mps 761 mmHg 76%
    03:00 +23°C° 0 mm 1 mps 760 mmHg 73%
    04:00 +22°C° 0 mm 1 mps 760 mmHg 71%
    05:00 +23°C° 0 mm 1 mps 760 mmHg 70%
    06:00 +24°C° 0 mm 1 mps 761 mmHg 69%
    07:00 +24°C° 0 mm 1 mps 761 mmHg 68%
    08:00 +26°C° 0 mm 1 mps 761 mmHg 60%
    09:00 +28°C° 0 mm 2 mps 761 mmHg 53%
    10:00 +30°C° 0 mm 2 mps 761 mmHg 45%
    11:00 +31°C° 0 mm 2 mps 761 mmHg 44%
    12:00 +32°C° 0 mm 2 mps 761 mmHg 43%
    13:00 +32°C° 0 mm 2 mps 760 mmHg 42%
    14:00 +32°C° 0 mm 2 mps 760 mmHg 43%
    15:00 +31°C° 0 mm 2 mps 760 mmHg 43%
    16:00 +31°C° 0 mm 2 mps 760 mmHg 44%
    17:00 +29°C° 0 mm 2 mps 760 mmHg 51%
    18:00 +27°C° 0 mm 1 mps 760 mmHg 58%
    19:00 +25°C° 0 mm 1 mps 761 mmHg 66%
    20:00 +25°C° 0 mm 1 mps 761 mmHg 64%
    21:00 +25°C° 0 mm 1 mps 761 mmHg 62%
    22:00 +25°C° 0 mm 1 mps 761 mmHg 61%
    23:00 +25°C° 0 mm 1 mps 761 mmHg 59%

    Day after tomorrow, 19 September, Thursday

    Time Temperature Precipitation Wind Pressure Humidity
    00:00 +25°C° 0 mm 1 mps 761 mmHg 58%
    01:00 +25°C° 0 mm 1 mps 761 mmHg 56%
    02:00 +25°C° 0 mm 1 mps 761 mmHg 54%
    03:00 +25°C° 0 mm 1 mps 760 mmHg 51%
    04:00 +25°C° 0 mm 1 mps 760 mmHg 49%
    05:00 +26°C° 0 mm 1 mps 760 mmHg 48%
    06:00 +26°C° 0 mm 1 mps 760 mmHg 47%
    07:00 +27°C° 0 mm 1 mps 760 mmHg 46%
    08:00 +29°C° 0 mm 1 mps 760 mmHg 42%
    09:00 +31°C° 0 mm 1 mps 761 mmHg 39%
    10:00 +34°C° 0 mm 2 mps 761 mmHg 35%
    11:00 +34°C° 0 mm 2 mps 761 mmHg 36%
    12:00 +34°C° 0 mm 2 mps 760 mmHg 36%
    13:00 +35°C° 0 mm 2 mps 760 mmHg 37%
    14:00 +34°C° 0 mm 2 mps 760 mmHg 40%
    15:00 +32°C° 0 mm 2 mps 760 mmHg 43%
    16:00 +31°C° 0 mm 2 mps 760 mmHg 46%
    17:00 +29°C° 0 mm 2 mps 760 mmHg 55%
    18:00 +27°C° 0 mm 2 mps 760 mmHg 64%
    19:00 +26°C° 0 mm 1 mps 760 mmHg 72%
    20:00 +25°C° 0 mm 1 mps 761 mmHg 75%
    21:00 +25°C° 0 mm 1 mps 761 mmHg 77%
    22:00 +24°C° 0 mm 1 mps 761 mmHg 79%
    23:00 +24°C° 0 mm 1 mps 761 mmHg 81%

    20 September, Friday

    Time Temperature Precipitation Wind Pressure Humidity
    00:00 +24°C° 0 mm 1 mps 761 mmHg 82%
    01:00 +24°C° 0 mm 2 mps 761 mmHg 83%
    02:00 +24°C° 0.1 mm 2 mps 761 mmHg 84%
    03:00 +23°C° 0.1 mm 2 mps 761 mmHg 85%
    04:00 +23°C° 0.1 mm 2 mps 761 mmHg 87%
    05:00 +24°C° 1.2 mm 2 mps 761 mmHg 82%
    06:00 +25°C° 1.2 mm 2 mps 761 mmHg 77%
    07:00 +25°C° 1.2 mm 2 mps 762 mmHg 72%
    08:00 +27°C° 0.9 mm 2 mps 762 mmHg 67%
    09:00 +29°C° 0.9 mm 2 mps 762 mmHg 62%
    10:00 +30°C° 0.9 mm 2 mps 763 mmHg 56%
    11:00 +30°C° 0.5 mm 2 mps 762 mmHg 60%
    12:00 +29°C° 0.5 mm 2 mps 762 mmHg 64%
    13:00 +29°C° 0.5 mm 2 mps 762 mmHg 69%
    14:00 +28°C° 0.3 mm 2 mps 762 mmHg 72%
    15:00 +28°C° 0.3 mm 2 mps 762 mmHg 75%
    16:00 +27°C° 0.3 mm 2 mps 762 mmHg 79%
    17:00 +26°C° 0.1 mm 2 mps 763 mmHg 82%
    18:00 +25°C° 0.1 mm 2 mps 763 mmHg 86%
    19:00 +24°C° 0.1 mm 2 mps 763 mmHg 90%
    20:00 +24°C° 0.1 mm 2 mps 763 mmHg 90%
    21:00 +24°C° 0.1 mm 2 mps 764 mmHg 90%
    22:00 +24°C° 0.1 mm 3 mps 764 mmHg 90%
    23:00 +24°C° 0.3 mm 3 mps 764 mmHg 90%

    21 September, Saturday

    Time Temperature Precipitation Wind Pressure Humidity
    00:00 +22°C° 0.3 mm 3 mps 764 mmHg 90%
    01:00 +22°C° 0.3 mm 3 mps 764 mmHg 90%
    02:00 +22°C° 0 mm 3 mps 764 mmHg 89%
    03:00 +23°C° 0 mm 2 mps 764 mmHg 89%
    04:00 +23°C° 0 mm 2 mps 764 mmHg 89%
    05:00 +23°C° 0 mm 2 mps 764 mmHg 86%
    06:00 +24°C° 0 mm 2 mps 764 mmHg 84%
    07:00 +24°C° 0 mm 2 mps 764 mmHg 82%
    08:00 +25°C° 0 mm 2 mps 765 mmHg 77%
    09:00 +27°C° 0 mm 2 mps 765 mmHg 72%
    10:00 +28°C° 0 mm 2 mps 765 mmHg 67%
    11:00 +28°C° 0 mm 2 mps 765 mmHg 66%
    12:00 +28°C° 0 mm 2 mps 765 mmHg 66%
    13:00 +29°C° 0 mm 2 mps 765 mmHg 65%
    14:00 +29°C° 0.1 mm 2 mps 765 mmHg 66%
    15:00 +28°C° 0.1 mm 2 mps 765 mmHg 68%
    16:00 +28°C° 0.1 mm 1 mps 765 mmHg 69%
    17:00 +26°C° 0 mm 1 mps 765 mmHg 76%
    18:00 +25°C° 0 mm 2 mps 765 mmHg 83%
    19:00 +23°C° 0 mm 2 mps 765 mmHg 90%
    20:00 +23°C° 0 mm 2 mps 766 mmHg 89%
    21:00 +23°C° 0 mm 2 mps 766 mmHg 89%
    22:00 +23°C° 0 mm 2 mps 766 mmHg 88%
    23:00 +23°C° 0 mm 2 mps 766 mmHg 87%

    22 September, Sunday

    Time Temperature Precipitation Wind Pressure Humidity
    00:00 +21°C° 0 mm 2 mps 766 mmHg 86%
    01:00 +21°C° 0 mm 2 mps 766 mmHg 86%
    02:00 +21°C° 0 mm 2 mps 766 mmHg 84%
    03:00 +21°C° 0 mm 2 mps 766 mmHg 83%
    04:00 +21°C° 0 mm 2 mps 766 mmHg 82%
    05:00 +23°C° 0 mm 2 mps 766 mmHg 78%
    06:00 +23°C° 0 mm 2 mps 766 mmHg 75%
    07:00 +24°C° 0 mm 2 mps 766 mmHg 71%
    08:00 +26°C° 0 mm 2 mps 766 mmHg 65%
    09:00 +27°C° 0 mm 2 mps 767 mmHg 59%
    10:00 +29°C° 0 mm 2 mps 767 mmHg 52%
    11:00 +30°C° 0 mm 2 mps 767 mmHg 52%
    12:00 +30°C° 0 mm 2 mps 767 mmHg 52%
    13:00 +30°C° 0 mm 3 mps 766 mmHg 52%
    14:00 +30°C° 0 mm 2 mps 766 mmHg 55%
    15:00 +29°C° 0 mm 2 mps 766 mmHg 58%
    16:00 +28°C° 0 mm 2 mps 766 mmHg 61%
    17:00 +27°C° 0 mm 1 mps 766 mmHg 67%
    18:00 +25°C° 0 mm 1 mps 766 mmHg 74%
    19:00 +23°C° 0 mm 1 mps 766 mmHg 80%
    20:00 +23°C° 0 mm 1 mps 766 mmHg 81%
    21:00 +23°C° 0 mm 1 mps 767 mmHg 81%
    22:00 +23°C° 0 mm 1 mps 767 mmHg 82%
    23:00 +23°C° 0 mm 1 mps 767 mmHg 82%
    Show more